Location: ????????
(55.0559°N, 39.1270°E)
Time: 00:59:56
(UTC+00:00)

SL-16 R/B - Pass Details

Date: 15 November 2025
Orbit: 841 x 844 km, 71.0° (Epoch: 12 December)

Event Time Altitude Azimuth Distance (km) Brightness Sun altitude
Exits shadow 00:44:49 22° 11° (N) 1,793 4.1 -35.3°
Drops below altitude 10° 00:47:04 10° 27° (NNE) 2,478 5.1 -35.0°
Sets 00:49:45 0° 36° (NE) 3,416 6.1 -34.6°
